When you browse on this site, cookies collect data to enhance your experience and personalize the content and advertising you see.
Visit our Privacy Policy to learn more. By continuing to use the site, you agree to this use of cookies and data.
  • In United Kingdom
  • List of Countries
  • For 7 days
  • Water Temperature
  • Weather Map
  • Weather Widgets
  • user-avatar
    Login

    Hourly Weather Abergele

    Today, 24 February, Monday

    Time Temperature Precipitation Wind Pressure Humidity
    00:00 +2°C° 0.3 mm 3 mps 757 mmHg 91%
    01:00 +1°C° 0.6 mm 5 mps 755 mmHg 92%
    02:00 +1°C° 0.6 mm 6 mps 753 mmHg 93%
    03:00 0°C° 0.6 mm 8 mps 751 mmHg 94%
    04:00 +2°C° 4.2 mm 8 mps 749 mmHg 94%
    05:00 +5°C° 4.2 mm 8 mps 747 mmHg 95%
    06:00 +7°C° 4.2 mm 8 mps 745 mmHg 95%
    07:00 +7°C° 2 mm 9 mps 744 mmHg 94%
    08:00 +8°C° 2 mm 10 mps 743 mmHg 93%
    09:00 +8°C° 2 mm 12 mps 741 mmHg 92%
    10:00 +8°C° 0.1 mm 12 mps 741 mmHg 90%
    11:00 +8°C° 0.1 mm 12 mps 740 mmHg 89%
    12:00 +9°C° 0.1 mm 12 mps 740 mmHg 87%
    13:00 +7°C° 0 mm 12 mps 741 mmHg 85%
    14:00 +5°C° 0 mm 12 mps 741 mmHg 83%
    15:00 +4°C° 0 mm 12 mps 741 mmHg 81%
    16:00 +3°C° 0.1 mm 12 mps 742 mmHg 81%
    17:00 +3°C° 0.1 mm 11 mps 743 mmHg 80%
    18:00 +2°C° 0.1 mm 11 mps 744 mmHg 79%
    19:00 +2°C° 0.1 mm 10 mps 744 mmHg 80%
    20:00 +1°C° 0.1 mm 10 mps 745 mmHg 81%
    21:00 +1°C° 0.1 mm 9 mps 745 mmHg 82%
    22:00 +1°C° 0.1 mm 9 mps 745 mmHg 81%
    23:00 +1°C° 0.1 mm 9 mps 745 mmHg 79%

    Tomorrow, 25 February, Tuesday

    Time Temperature Precipitation Wind Pressure Humidity
    00:00 0°C° 0.1 mm 9 mps 745 mmHg 78%
    01:00 0°C° 0.1 mm 9 mps 745 mmHg 79%
    02:00 0°C° 0.1 mm 9 mps 744 mmHg 79%
    03:00 0°C° 0.1 mm 9 mps 743 mmHg 80%
    04:00 0°C° 0.2 mm 9 mps 743 mmHg 84%
    05:00 0°C° 0.2 mm 9 mps 743 mmHg 87%
    06:00 0°C° 0.2 mm 9 mps 743 mmHg 91%
    07:00 0°C° 0.1 mm 9 mps 743 mmHg 88%
    08:00 0°C° 0.1 mm 8 mps 742 mmHg 84%
    09:00 +1°C° 0.1 mm 8 mps 742 mmHg 80%
    10:00 +1°C° 0.2 mm 9 mps 742 mmHg 77%
    11:00 +2°C° 0.2 mm 9 mps 742 mmHg 74%
    12:00 +2°C° 0.2 mm 9 mps 741 mmHg 71%
    13:00 +2°C° 0.2 mm 9 mps 740 mmHg 74%
    14:00 +1°C° 0.2 mm 8 mps 740 mmHg 78%
    15:00 +2°C° 0.2 mm 7 mps 739 mmHg 81%
    16:00 +1°C° 0.7 mm 8 mps 739 mmHg 81%
    17:00 0°C° 0.7 mm 8 mps 739 mmHg 82%
    18:00 -1°C° 0.7 mm 9 mps 738 mmHg 82%
    19:00 -1°C° 0.3 mm 9 mps 738 mmHg 82%
    20:00 -1°C° 0.3 mm 9 mps 739 mmHg 82%
    21:00 -1°C° 0.3 mm 9 mps 739 mmHg 82%
    22:00 -3°C° 0.2 mm 9 mps 739 mmHg 85%
    23:00 -3°C° 0.2 mm 9 mps 739 mmHg 88%

    Day after tomorrow, 26 February, Wednesday

    Time Temperature Precipitation Wind Pressure Humidity
    00:00 -3°C° 0.2 mm 9 mps 739 mmHg 91%
    01:00 -3°C° 0.5 mm 9 mps 740 mmHg 90%
    02:00 -2°C° 0.5 mm 10 mps 740 mmHg 88%
    03:00 -2°C° 0.5 mm 10 mps 740 mmHg 87%
    04:00 -2°C° 0.5 mm 11 mps 741 mmHg 87%
    05:00 -2°C° 0.5 mm 11 mps 742 mmHg 87%
    06:00 -2°C° 0.5 mm 12 mps 743 mmHg 88%
    07:00 -1°C° 0.3 mm 12 mps 744 mmHg 84%
    08:00 -1°C° 0.3 mm 11 mps 745 mmHg 81%
    09:00 -1°C° 0.3 mm 11 mps 746 mmHg 77%
    10:00 0°C° 0.1 mm 10 mps 746 mmHg 75%
    11:00 +1°C° 0.1 mm 10 mps 747 mmHg 72%
    12:00 +1°C° 0.1 mm 9 mps 748 mmHg 70%
    13:00 +1°C° 0.1 mm 9 mps 748 mmHg 69%
    14:00 +1°C° 0.1 mm 8 mps 748 mmHg 69%
    15:00 +1°C° 0.1 mm 8 mps 748 mmHg 68%
    16:00 +2°C° 0.1 mm 7 mps 748 mmHg 73%
    17:00 0°C° 0.1 mm 7 mps 748 mmHg 78%
    18:00 +1°C° 0.1 mm 6 mps 748 mmHg 83%
    19:00 +1°C° 0.1 mm 6 mps 747 mmHg 84%
    20:00 -1°C° 0.1 mm 6 mps 747 mmHg 84%
    21:00 -1°C° 0.1 mm 6 mps 747 mmHg 85%
    22:00 -1°C° 0 mm 6 mps 747 mmHg 85%
    23:00 0°C° 0 mm 5 mps 746 mmHg 86%

    27 February, Thursday

    Time Temperature Precipitation Wind Pressure Humidity
    00:00 0°C° 0 mm 5 mps 746 mmHg 86%
    01:00 0°C° 0 mm 4 mps 745 mmHg 88%
    02:00 0°C° 0 mm 4 mps 744 mmHg 90%
    03:00 +1°C° 0 mm 3 mps 744 mmHg 91%
    04:00 +1°C° 0.2 mm 3 mps 743 mmHg 93%
    05:00 +1°C° 0.2 mm 3 mps 742 mmHg 95%
    06:00 +2°C° 0.2 mm 2 mps 741 mmHg 97%
    07:00 +2°C° 0.1 mm 2 mps 741 mmHg 97%
    08:00 +1°C° 0.1 mm 3 mps 740 mmHg 97%
    09:00 +1°C° 0.1 mm 3 mps 740 mmHg 96%
    10:00 +2°C° 0 mm 2 mps 740 mmHg 95%
    11:00 +3°C° 0 mm 2 mps 740 mmHg 94%
    12:00 +4°C° 0 mm 1 mps 741 mmHg 94%
    13:00 +4°C° 0 mm 1 mps 741 mmHg 91%
    14:00 +5°C° 0 mm 1 mps 741 mmHg 89%
    15:00 +4°C° 0 mm 0 mps 741 mmHg 86%
    16:00 +3°C° 0 mm 0 mps 741 mmHg 88%
    17:00 +3°C° 0 mm 0 mps 741 mmHg 90%
    18:00 +3°C° 0 mm 1 mps 741 mmHg 93%
    19:00 +3°C° 0 mm 1 mps 742 mmHg 93%
    20:00 +3°C° 0 mm 1 mps 742 mmHg 94%
    21:00 +1°C° 0 mm 2 mps 742 mmHg 95%
    22:00 +2°C° 0 mm 2 mps 742 mmHg 95%
    23:00 +1°C° 0 mm 3 mps 742 mmHg 96%

    28 February, Friday

    Time Temperature Precipitation Wind Pressure Humidity
    00:00 +1°C° 0 mm 3 mps 741 mmHg 96%
    01:00 +1°C° 0.5 mm 4 mps 741 mmHg 95%
    02:00 +1°C° 0.5 mm 5 mps 741 mmHg 93%
    03:00 +2°C° 0.5 mm 6 mps 740 mmHg 92%
    04:00 +1°C° 0 mm 6 mps 740 mmHg 90%
    05:00 0°C° 0 mm 7 mps 741 mmHg 88%
    06:00 0°C° 0 mm 7 mps 741 mmHg 86%
    07:00 0°C° 0 mm 7 mps 741 mmHg 85%
    08:00 0°C° 0 mm 7 mps 741 mmHg 84%
    09:00 0°C° 0 mm 7 mps 741 mmHg 84%
    10:00 +2°C° 0.1 mm 6 mps 741 mmHg 79%
    11:00 +3°C° 0.1 mm 6 mps 741 mmHg 75%
    12:00 +4°C° 0.1 mm 6 mps 741 mmHg 70%
    13:00 +4°C° 0.1 mm 6 mps 740 mmHg 68%
    14:00 +5°C° 0.1 mm 5 mps 740 mmHg 66%
    15:00 +5°C° 0.1 mm 4 mps 739 mmHg 64%
    16:00 +3°C° 0 mm 4 mps 739 mmHg 71%
    17:00 +2°C° 0 mm 3 mps 738 mmHg 79%
    18:00 +1°C° 0 mm 2 mps 737 mmHg 86%
    19:00 0°C° 0 mm 3 mps 736 mmHg 87%
    20:00 -1°C° 0 mm 3 mps 735 mmHg 88%
    21:00 -2°C° 0 mm 4 mps 734 mmHg 89%
    22:00 -2°C° 0 mm 4 mps 734 mmHg 90%
    23:00 -1°C° 0 mm 5 mps 733 mmHg 90%

    29 February, Saturday

    Time Temperature Precipitation Wind Pressure Humidity
    00:00 -1°C° 0 mm 5 mps 732 mmHg 91%
    01:00 -1°C° 1.5 mm 4 mps 732 mmHg 93%
    02:00 -1°C° 1.5 mm 4 mps 731 mmHg 96%
    03:00 0°C° 1.5 mm 3 mps 731 mmHg 98%
    04:00 0°C° 0.9 mm 3 mps 731 mmHg 98%
    05:00 -1°C° 0.9 mm 3 mps 731 mmHg 98%
    06:00 -1°C° 0.9 mm 3 mps 731 mmHg 98%
    07:00 -2°C° 0.4 mm 4 mps 731 mmHg 97%
    08:00 -1°C° 0.4 mm 5 mps 732 mmHg 97%
    09:00 -2°C° 0.4 mm 6 mps 732 mmHg 97%
    10:00 0°C° 0.3 mm 5 mps 733 mmHg 97%
    11:00 0°C° 0.3 mm 4 mps 734 mmHg 97%
    12:00 0°C° 0.3 mm 4 mps 736 mmHg 97%
    13:00 0°C° 0.4 mm 5 mps 736 mmHg 95%
    14:00 0°C° 0.4 mm 5 mps 737 mmHg 94%
    15:00 +1°C° 0.4 mm 6 mps 738 mmHg 92%
    16:00 -1°C° 0.1 mm 6 mps 739 mmHg 89%
    17:00 -2°C° 0.1 mm 6 mps 740 mmHg 86%
    18:00 -2°C° 0.1 mm 6 mps 742 mmHg 82%
    19:00 -3°C° 0 mm 6 mps 743 mmHg 84%
    20:00 -3°C° 0 mm 6 mps 744 mmHg 85%
    21:00 -2°C° 0 mm 5 mps 745 mmHg 87%
    22:00 -4°C° 0 mm 5 mps 746 mmHg 86%
    23:00 -4°C° 0 mm 5 mps 747 mmHg 85%
    Show more